Year,Month,Day,Hour,Minute,Value (Times are PST for temperature in C)
2018,02,14,00,00,2.70
2018,02,14,00,01,2.70
2018,02,14,00,02,2.60
2018,02,14,00,03,2.60
2018,02,14,00,04,2.60
2018,02,14,00,05,2.60
2018,02,14,00,06,2.60
2018,02,14,00,07,2.60
2018,02,14,00,08,2.60
2018,02,14,00,09,2.60
2018,02,14,00,10,2.60
2018,02,14,00,11,2.60
2018,02,14,00,12,2.60
2018,02,14,00,13,2.60
2018,02,14,00,14,2.60
2018,02,14,00,15,2.60
2018,02,14,00,16,2.60
2018,02,14,00,17,2.60
2018,02,14,00,18,2.60
2018,02,14,00,19,2.60
2018,02,14,00,20,2.60
2018,02,14,00,21,2.60
2018,02,14,00,22,2.60
2018,02,14,00,23,2.60
2018,02,14,00,24,2.60
2018,02,14,00,25,2.60
2018,02,14,00,26,2.60
2018,02,14,00,27,2.60
2018,02,14,00,28,2.60
2018,02,14,00,29,2.60
2018,02,14,00,30,2.60
2018,02,14,00,31,2.60
2018,02,14,00,32,2.60
2018,02,14,00,33,2.60
2018,02,14,00,34,2.60
2018,02,14,00,35,2.60
2018,02,14,00,36,2.60
2018,02,14,00,37,2.60
2018,02,14,00,38,2.60
2018,02,14,00,39,2.60
2018,02,14,00,40,2.60
2018,02,14,00,41,2.70
2018,02,14,00,42,2.70
2018,02,14,00,43,2.70
2018,02,14,00,44,2.70
2018,02,14,00,45,2.70
2018,02,14,00,46,2.70
2018,02,14,00,47,2.70
2018,02,14,00,48,2.60
2018,02,14,00,49,2.60
2018,02,14,00,50,2.60
2018,02,14,00,51,2.60
2018,02,14,00,52,2.60
2018,02,14,00,53,2.60
2018,02,14,00,54,2.60
2018,02,14,00,55,2.60
2018,02,14,00,56,2.50
2018,02,14,00,57,2.50
2018,02,14,00,58,2.50
2018,02,14,00,59,2.50
2018,02,14,01,00,2.50
2018,02,14,01,01,2.50
2018,02,14,01,02,2.50
2018,02,14,01,03,2.40
2018,02,14,01,04,2.40
2018,02,14,01,05,2.40
2018,02,14,01,06,2.40
2018,02,14,01,07,2.40
2018,02,14,01,08,2.40
2018,02,14,01,09,2.40
2018,02,14,01,10,2.40
2018,02,14,01,11,2.40
2018,02,14,01,12,2.40
2018,02,14,01,13,2.40
2018,02,14,01,14,2.40
2018,02,14,01,15,2.40
2018,02,14,01,16,2.40
2018,02,14,01,17,2.40
2018,02,14,01,18,2.40
2018,02,14,01,19,2.30
2018,02,14,01,20,2.30
2018,02,14,01,21,2.30
2018,02,14,01,22,2.30
2018,02,14,01,23,2.30
2018,02,14,01,24,2.30
2018,02,14,01,25,2.30
2018,02,14,01,26,2.30
2018,02,14,01,27,2.30
2018,02,14,01,28,2.30
2018,02,14,01,29,2.30
2018,02,14,01,30,2.30
2018,02,14,01,31,2.30
2018,02,14,01,32,2.30
2018,02,14,01,33,2.40
2018,02,14,01,34,2.40
2018,02,14,01,35,2.40
2018,02,14,01,36,2.40
2018,02,14,01,37,2.40
2018,02,14,01,38,2.40
2018,02,14,01,39,2.40
2018,02,14,01,40,2.40
2018,02,14,01,41,2.40
2018,02,14,01,42,2.40
2018,02,14,01,43,2.40
2018,02,14,01,44,2.40
2018,02,14,01,45,2.40
2018,02,14,01,46,2.40
2018,02,14,01,47,2.40
2018,02,14,01,48,2.40
2018,02,14,01,49,2.40
2018,02,14,01,50,2.40
2018,02,14,01,51,2.40
2018,02,14,01,52,2.40
2018,02,14,01,53,2.40
2018,02,14,01,54,2.40
2018,02,14,01,55,2.40
2018,02,14,01,56,2.40
2018,02,14,01,57,2.40
2018,02,14,01,58,2.40
2018,02,14,01,59,2.40
2018,02,14,02,00,2.40
2018,02,14,02,01,2.40
2018,02,14,02,02,2.40
2018,02,14,02,03,2.40
2018,02,14,02,04,2.40
2018,02,14,02,05,2.40
2018,02,14,02,06,2.40
2018,02,14,02,07,2.40
2018,02,14,02,08,2.40
2018,02,14,02,09,2.40
2018,02,14,02,10,2.40
2018,02,14,02,11,2.40
2018,02,14,02,12,2.40
2018,02,14,02,13,2.40
2018,02,14,02,14,2.40
2018,02,14,02,15,2.40
2018,02,14,02,16,2.40
2018,02,14,02,17,2.40
2018,02,14,02,18,2.40
2018,02,14,02,19,2.40
2018,02,14,02,20,2.40
2018,02,14,02,21,2.40
2018,02,14,02,22,2.40
2018,02,14,02,23,2.40
2018,02,14,02,24,2.40
2018,02,14,02,25,2.40
2018,02,14,02,26,2.40
2018,02,14,02,27,2.40
2018,02,14,02,28,2.40
2018,02,14,02,29,2.40
2018,02,14,02,30,2.40
2018,02,14,02,31,2.40
2018,02,14,02,32,2.40
2018,02,14,02,33,2.40
2018,02,14,02,34,2.40
2018,02,14,02,35,2.40
2018,02,14,02,36,2.40
2018,02,14,02,37,2.40
2018,02,14,02,38,2.40
2018,02,14,02,39,2.40
2018,02,14,02,40,2.40
2018,02,14,02,41,2.40
2018,02,14,02,42,2.40
2018,02,14,02,43,2.40
2018,02,14,02,44,2.40
2018,02,14,02,45,2.40
2018,02,14,02,46,2.40
2018,02,14,02,47,2.40
2018,02,14,02,48,2.40
2018,02,14,02,49,2.50
2018,02,14,02,50,2.50
2018,02,14,02,51,2.50
2018,02,14,02,52,2.50
2018,02,14,02,53,2.50
2018,02,14,02,54,2.50
2018,02,14,02,55,2.50
2018,02,14,02,56,2.50
2018,02,14,02,57,2.50
2018,02,14,02,58,2.50
2018,02,14,02,59,2.50
2018,02,14,03,00,2.50
2018,02,14,03,01,2.50
2018,02,14,03,02,2.50
2018,02,14,03,03,2.50
2018,02,14,03,04,2.50
2018,02,14,03,05,2.60
2018,02,14,03,06,2.60
2018,02,14,03,07,2.60
2018,02,14,03,08,2.60
2018,02,14,03,09,2.60
2018,02,14,03,10,2.60
2018,02,14,03,11,2.60
2018,02,14,03,12,2.60
2018,02,14,03,13,2.60
2018,02,14,03,14,2.60
2018,02,14,03,15,2.60
2018,02,14,03,16,2.60
2018,02,14,03,17,2.60
2018,02,14,03,18,2.60
2018,02,14,03,19,2.60
2018,02,14,03,20,2.60
2018,02,14,03,21,2.60
2018,02,14,03,22,2.60
2018,02,14,03,23,2.60
2018,02,14,03,24,2.60
2018,02,14,03,25,2.60
2018,02,14,03,26,2.60
2018,02,14,03,27,2.60
2018,02,14,03,28,2.60
2018,02,14,03,29,2.60
2018,02,14,03,30,2.60
2018,02,14,03,31,2.60
2018,02,14,03,32,2.60
2018,02,14,03,33,2.60
2018,02,14,03,34,2.60
2018,02,14,03,35,2.60
2018,02,14,03,36,2.60
2018,02,14,03,37,2.60
2018,02,14,03,38,2.60
2018,02,14,03,39,2.60
2018,02,14,03,40,2.60
2018,02,14,03,41,2.60
2018,02,14,03,42,2.60
2018,02,14,03,43,2.60
2018,02,14,03,44,2.60
2018,02,14,03,45,2.60
2018,02,14,03,46,2.60
2018,02,14,03,47,2.60
2018,02,14,03,48,2.60
2018,02,14,03,49,2.60
2018,02,14,03,50,2.60
2018,02,14,03,51,2.60
2018,02,14,03,52,2.60
2018,02,14,03,53,2.60
2018,02,14,03,54,2.60
2018,02,14,03,55,2.60
2018,02,14,03,56,2.60
2018,02,14,03,57,2.60
2018,02,14,03,58,2.60
2018,02,14,03,59,2.60
2018,02,14,04,00,2.60
2018,02,14,04,01,2.60
2018,02,14,04,02,2.50
2018,02,14,04,03,2.50
2018,02,14,04,04,2.50
2018,02,14,04,05,2.50
2018,02,14,04,06,2.50
2018,02,14,04,07,2.40
2018,02,14,04,08,2.40
2018,02,14,04,09,2.40
2018,02,14,04,10,2.40
2018,02,14,04,11,2.40
2018,02,14,04,12,2.40
2018,02,14,04,13,2.40
2018,02,14,04,14,2.40
2018,02,14,04,15,2.40
2018,02,14,04,16,2.40
2018,02,14,04,17,2.40
2018,02,14,04,18,2.40
2018,02,14,04,19,2.40
2018,02,14,04,20,2.40
2018,02,14,04,21,2.30
2018,02,14,04,22,2.30
2018,02,14,04,23,2.30
2018,02,14,04,24,2.30
2018,02,14,04,25,2.20
2018,02,14,04,26,2.20
2018,02,14,04,27,2.20
2018,02,14,04,28,2.10
2018,02,14,04,29,2.10
2018,02,14,04,30,2.00
2018,02,14,04,31,2.00
2018,02,14,04,32,1.90
2018,02,14,04,33,1.90
2018,02,14,04,34,1.90
2018,02,14,04,35,1.90
2018,02,14,04,36,1.80
2018,02,14,04,37,1.80
2018,02,14,04,38,1.80
2018,02,14,04,39,1.80
2018,02,14,04,40,1.80
2018,02,14,04,41,1.80
2018,02,14,04,42,1.80
2018,02,14,04,43,1.80
2018,02,14,04,44,1.80
2018,02,14,04,45,1.80
2018,02,14,04,46,1.70
2018,02,14,04,47,1.70
2018,02,14,04,48,1.70
2018,02,14,04,49,1.70
2018,02,14,04,50,1.70
2018,02,14,04,51,1.70
2018,02,14,04,52,1.70
2018,02,14,04,53,1.60
2018,02,14,04,54,1.60
2018,02,14,04,55,1.60
2018,02,14,04,56,1.60
2018,02,14,04,57,1.50
2018,02,14,04,58,1.50
2018,02,14,04,59,1.50
2018,02,14,05,00,1.40
2018,02,14,05,01,1.40
2018,02,14,05,02,1.40
2018,02,14,05,03,1.40
2018,02,14,05,04,1.40
2018,02,14,05,05,1.40
2018,02,14,05,06,1.40
2018,02,14,05,07,1.40
2018,02,14,05,08,1.40
2018,02,14,05,09,1.40
2018,02,14,05,10,1.50
2018,02,14,05,11,1.50
2018,02,14,05,12,1.50
2018,02,14,05,13,1.50
2018,02,14,05,14,1.50
2018,02,14,05,15,1.50
2018,02,14,05,16,1.50
2018,02,14,05,17,1.50
2018,02,14,05,18,1.50
2018,02,14,05,19,1.40
2018,02,14,05,20,1.40
2018,02,14,05,21,1.40
2018,02,14,05,22,1.40
2018,02,14,05,23,1.40
2018,02,14,05,24,1.40
2018,02,14,05,25,1.40
2018,02,14,05,26,1.40
2018,02,14,05,27,1.50
2018,02,14,05,28,1.50
2018,02,14,05,29,1.50
2018,02,14,05,30,1.50
2018,02,14,05,31,1.50
2018,02,14,05,32,1.50
2018,02,14,05,33,1.60
2018,02,14,05,34,1.50
2018,02,14,05,35,1.50
2018,02,14,05,36,1.50
2018,02,14,05,37,1.50
2018,02,14,05,38,1.50
2018,02,14,05,39,1.50
2018,02,14,05,40,1.40
2018,02,14,05,41,1.40
2018,02,14,05,42,1.40
2018,02,14,05,43,1.40
2018,02,14,05,44,1.30
2018,02,14,05,45,1.30
2018,02,14,05,46,1.30
2018,02,14,05,47,1.30
2018,02,14,05,48,1.30
2018,02,14,05,49,1.30
2018,02,14,05,50,1.30
2018,02,14,05,51,1.30
2018,02,14,05,52,1.40
2018,02,14,05,53,1.40
2018,02,14,05,54,1.40
2018,02,14,05,55,1.40
2018,02,14,05,56,1.40
2018,02,14,05,57,1.40
2018,02,14,05,58,1.40
2018,02,14,05,59,1.40
2018,02,14,06,00,1.40
2018,02,14,06,01,1.40
2018,02,14,06,02,1.40
2018,02,14,06,03,1.40
2018,02,14,06,04,1.40
2018,02,14,06,05,1.40
2018,02,14,06,06,1.30
2018,02,14,06,07,1.30
2018,02,14,06,08,1.30
2018,02,14,06,09,1.30
2018,02,14,06,10,1.30
2018,02,14,06,11,1.30
2018,02,14,06,12,1.30
2018,02,14,06,13,1.30
2018,02,14,06,14,1.30
2018,02,14,06,15,1.30
2018,02,14,06,16,1.30
2018,02,14,06,17,1.30
2018,02,14,06,18,1.30
2018,02,14,06,19,1.30
2018,02,14,06,20,1.40
2018,02,14,06,21,1.40
2018,02,14,06,22,1.40
2018,02,14,06,23,1.40
2018,02,14,06,24,1.40
2018,02,14,06,25,1.40
2018,02,14,06,26,1.40
2018,02,14,06,27,1.40
2018,02,14,06,28,1.40
2018,02,14,06,29,1.40
2018,02,14,06,30,1.40
2018,02,14,06,31,1.50
2018,02,14,06,32,1.50
2018,02,14,06,33,1.50
2018,02,14,06,34,1.50
2018,02,14,06,35,1.40
2018,02,14,06,36,1.40
2018,02,14,06,37,1.40
2018,02,14,06,38,1.40
2018,02,14,06,39,1.40
2018,02,14,06,40,1.40
2018,02,14,06,41,1.50
2018,02,14,06,42,1.50
2018,02,14,06,43,1.50
2018,02,14,06,44,1.50
2018,02,14,06,45,1.50
2018,02,14,06,46,1.50
2018,02,14,06,47,1.50
2018,02,14,06,48,1.50
2018,02,14,06,49,1.50
2018,02,14,06,50,1.50
2018,02,14,06,51,1.50
2018,02,14,06,52,1.50
2018,02,14,06,53,1.50
2018,02,14,06,54,1.50
2018,02,14,06,55,1.50
2018,02,14,06,56,1.50
2018,02,14,06,57,1.50
2018,02,14,06,58,1.50
2018,02,14,06,59,1.50
2018,02,14,07,00,1.50
2018,02,14,07,01,1.50
2018,02,14,07,02,1.50
2018,02,14,07,03,1.50
2018,02,14,07,04,1.50
2018,02,14,07,05,1.50
2018,02,14,07,06,1.50
2018,02,14,07,07,1.50
2018,02,14,07,08,1.50
2018,02,14,07,09,1.50
2018,02,14,07,10,1.50
2018,02,14,07,11,1.50
2018,02,14,07,12,1.40
2018,02,14,07,13,1.40
2018,02,14,07,14,1.40
2018,02,14,07,15,1.40
2018,02,14,07,16,1.30
2018,02,14,07,17,1.30
2018,02,14,07,18,1.30
2018,02,14,07,19,1.30
2018,02,14,07,20,1.30
2018,02,14,07,21,1.20
2018,02,14,07,22,1.20
2018,02,14,07,23,1.20
2018,02,14,07,24,1.10
2018,02,14,07,25,1.10
2018,02,14,07,26,1.10
2018,02,14,07,27,1.10
2018,02,14,07,28,1.10
2018,02,14,07,29,1.10
2018,02,14,07,30,1.10
2018,02,14,07,31,1.10
2018,02,14,07,32,1.10
2018,02,14,07,33,1.10
2018,02,14,07,34,1.20
2018,02,14,07,35,1.20
2018,02,14,07,36,1.20
2018,02,14,07,37,1.20
2018,02,14,07,38,1.20
2018,02,14,07,39,1.20
2018,02,14,07,40,1.30
2018,02,14,07,41,1.30
2018,02,14,07,42,1.30
2018,02,14,07,43,1.30
2018,02,14,07,44,1.30
2018,02,14,07,45,1.30
2018,02,14,07,46,1.30
2018,02,14,07,47,1.30
2018,02,14,07,48,1.30
2018,02,14,07,49,1.30
2018,02,14,07,50,1.30
2018,02,14,07,51,1.30
2018,02,14,07,52,1.30
2018,02,14,07,53,1.30
2018,02,14,07,54,1.30
2018,02,14,07,55,1.30
2018,02,14,07,56,1.30
2018,02,14,07,57,1.30
2018,02,14,07,58,1.30
2018,02,14,07,59,1.30
2018,02,14,08,00,1.30
2018,02,14,08,01,1.30
2018,02,14,08,02,1.30
2018,02,14,08,03,1.30
2018,02,14,08,04,1.30
2018,02,14,08,05,1.30
2018,02,14,08,06,1.40
2018,02,14,08,07,1.40
2018,02,14,08,08,1.40
2018,02,14,08,09,1.40
2018,02,14,08,10,1.40
2018,02,14,08,11,1.40
2018,02,14,08,12,1.50
2018,02,14,08,13,1.50
2018,02,14,08,14,1.50
2018,02,14,08,15,1.60
2018,02,14,08,16,1.60
2018,02,14,08,17,1.70
2018,02,14,08,18,1.70
2018,02,14,08,19,1.70
2018,02,14,08,20,1.70
2018,02,14,08,21,1.70
2018,02,14,08,22,1.80
2018,02,14,08,23,1.80
2018,02,14,08,24,1.90
2018,02,14,08,25,1.90
2018,02,14,08,26,1.90
2018,02,14,08,27,2.00
2018,02,14,08,28,2.00
2018,02,14,08,29,2.10
2018,02,14,08,30,2.10
2018,02,14,08,31,2.20
2018,02,14,08,32,2.20
2018,02,14,08,33,2.20
2018,02,14,08,34,2.30
2018,02,14,08,35,2.30
2018,02,14,08,36,2.40
2018,02,14,08,37,2.50
2018,02,14,08,38,2.50
2018,02,14,08,39,2.60
2018,02,14,08,40,2.60
2018,02,14,08,41,2.70
2018,02,14,08,42,2.70
2018,02,14,08,43,2.70
2018,02,14,08,44,2.80
2018,02,14,08,45,2.80
2018,02,14,08,46,2.90
2018,02,14,08,47,2.90
2018,02,14,08,48,3.00
2018,02,14,08,49,3.10
2018,02,14,08,50,3.10
2018,02,14,08,51,3.20
2018,02,14,08,52,3.20
2018,02,14,08,53,3.30
2018,02,14,08,54,3.30
2018,02,14,08,55,3.40
2018,02,14,08,56,3.40
2018,02,14,08,57,3.50
2018,02,14,08,58,3.50
2018,02,14,08,59,3.50
2018,02,14,09,00,3.60
2018,02,14,09,01,3.60
2018,02,14,09,02,3.70
2018,02,14,09,03,3.70
2018,02,14,09,04,3.80
2018,02,14,09,05,3.80
2018,02,14,09,06,3.80
2018,02,14,09,07,3.80
2018,02,14,09,08,3.90
2018,02,14,09,09,3.90
2018,02,14,09,10,3.90
2018,02,14,09,11,4.00
2018,02,14,09,12,4.00
2018,02,14,09,13,4.10
2018,02,14,09,14,4.10
2018,02,14,09,15,4.20
2018,02,14,09,16,4.20
2018,02,14,09,17,4.20
2018,02,14,09,18,4.30
2018,02,14,09,19,4.30
2018,02,14,09,20,4.30
2018,02,14,09,21,4.30
2018,02,14,09,22,4.30
2018,02,14,09,23,4.30
2018,02,14,09,24,4.30
2018,02,14,09,25,4.30
2018,02,14,09,26,4.40
2018,02,14,09,27,4.40
2018,02,14,09,28,4.40
2018,02,14,09,29,4.40
2018,02,14,09,30,4.50
2018,02,14,09,31,4.50
2018,02,14,09,32,4.60
2018,02,14,09,33,4.60
2018,02,14,09,34,4.70
2018,02,14,09,35,4.80
2018,02,14,09,36,4.80
2018,02,14,09,37,4.90
2018,02,14,09,38,4.90
2018,02,14,09,39,4.90
2018,02,14,09,40,5.00
2018,02,14,09,41,5.00
2018,02,14,09,42,5.10
2018,02,14,09,43,5.20
2018,02,14,09,44,5.20
2018,02,14,09,45,5.30
2018,02,14,09,46,5.30
2018,02,14,09,47,5.30
2018,02,14,09,48,5.30
2018,02,14,09,49,5.30
2018,02,14,09,50,5.30
2018,02,14,09,51,5.30
2018,02,14,09,52,5.30
2018,02,14,09,53,5.30
2018,02,14,09,54,5.30
2018,02,14,09,55,5.30
2018,02,14,09,56,5.30
2018,02,14,09,57,5.30
2018,02,14,09,58,5.30
2018,02,14,09,59,5.30
2018,02,14,10,00,5.30
2018,02,14,10,01,5.30
2018,02,14,10,02,5.30
2018,02,14,10,03,5.30
2018,02,14,10,04,5.30
2018,02,14,10,05,5.30
2018,02,14,10,06,5.30
2018,02,14,10,07,5.30
2018,02,14,10,08,5.30
2018,02,14,10,09,5.30
2018,02,14,10,10,5.30
2018,02,14,10,11,5.30
2018,02,14,10,12,5.30
2018,02,14,10,13,5.30
2018,02,14,10,14,5.30
2018,02,14,10,15,5.30
2018,02,14,10,16,5.40
2018,02,14,10,17,5.40
2018,02,14,10,18,5.40
2018,02,14,10,19,5.50
2018,02,14,10,20,5.50
2018,02,14,10,21,5.60
2018,02,14,10,22,5.60
2018,02,14,10,23,5.60
2018,02,14,10,24,5.70
2018,02,14,10,25,5.70
2018,02,14,10,26,5.70
2018,02,14,10,27,5.70
2018,02,14,10,28,5.70
2018,02,14,10,29,5.70
2018,02,14,10,30,5.70
2018,02,14,10,31,5.80
2018,02,14,10,32,5.80
2018,02,14,10,33,5.90
2018,02,14,10,34,5.90
2018,02,14,10,35,6.00
2018,02,14,10,36,6.10
2018,02,14,10,37,6.10
2018,02,14,10,38,6.10
2018,02,14,10,39,6.20
2018,02,14,10,40,6.20
2018,02,14,10,41,6.20
2018,02,14,10,42,6.30
2018,02,14,10,43,6.30
2018,02,14,10,44,6.30
2018,02,14,10,45,6.30
2018,02,14,10,46,6.30
2018,02,14,10,47,6.30
2018,02,14,10,48,6.30
2018,02,14,10,49,6.30
2018,02,14,10,50,6.40
2018,02,14,10,51,6.40
2018,02,14,10,52,6.40
2018,02,14,10,53,6.50
2018,02,14,10,54,6.60
2018,02,14,10,55,6.70
2018,02,14,10,56,6.70
2018,02,14,10,57,6.80
2018,02,14,10,58,6.80
2018,02,14,10,59,6.80
2018,02,14,11,00,6.80
2018,02,14,11,01,6.70
2018,02,14,11,02,6.60
2018,02,14,11,03,6.60
2018,02,14,11,04,6.50
2018,02,14,11,05,6.50
2018,02,14,11,06,6.50
2018,02,14,11,07,6.50
2018,02,14,11,08,6.50
2018,02,14,11,09,6.50
2018,02,14,11,10,6.60
2018,02,14,11,11,6.60
2018,02,14,11,12,6.70
2018,02,14,11,13,6.80
2018,02,14,11,14,6.80
2018,02,14,11,15,6.90
2018,02,14,11,16,6.90
2018,02,14,11,17,6.90
2018,02,14,11,18,6.90
2018,02,14,11,19,6.90
2018,02,14,11,20,6.90
2018,02,14,11,21,6.90
2018,02,14,11,22,6.80
2018,02,14,11,23,6.80
2018,02,14,11,24,6.80
2018,02,14,11,25,6.70
2018,02,14,11,26,6.70
2018,02,14,11,27,6.70
2018,02,14,11,28,6.60
2018,02,14,11,29,6.60
2018,02,14,11,30,6.60
2018,02,14,11,31,6.60
2018,02,14,11,32,6.70
2018,02,14,11,33,6.70
2018,02,14,11,34,6.70
2018,02,14,11,35,6.70
2018,02,14,11,36,6.80
2018,02,14,11,37,6.80
2018,02,14,11,38,6.80
2018,02,14,11,39,6.80
2018,02,14,11,40,6.90
2018,02,14,11,41,7.00
2018,02,14,11,42,7.00
2018,02,14,11,43,7.10
2018,02,14,11,44,7.10
2018,02,14,11,45,7.10
2018,02,14,11,46,7.10
2018,02,14,11,47,7.20
2018,02,14,11,48,7.20
2018,02,14,11,49,7.30
2018,02,14,11,50,7.30
2018,02,14,11,51,7.30
2018,02,14,11,52,7.30
2018,02,14,11,53,7.30
2018,02,14,11,54,7.40
2018,02,14,11,55,7.50
2018,02,14,11,56,7.50
2018,02,14,11,57,7.50
2018,02,14,11,58,7.40
2018,02,14,11,59,7.40
2018,02,14,12,00,7.40
2018,02,14,12,01,7.40
2018,02,14,12,02,7.40
2018,02,14,12,03,7.40
2018,02,14,12,04,7.40
2018,02,14,12,05,7.40
2018,02,14,12,06,7.40
2018,02,14,12,07,7.40
2018,02,14,12,08,7.30
2018,02,14,12,09,7.30
2018,02,14,12,10,7.30
2018,02,14,12,11,7.30
2018,02,14,12,12,7.30
2018,02,14,12,13,7.40
2018,02,14,12,14,7.40
2018,02,14,12,15,7.50
2018,02,14,12,16,7.60
2018,02,14,12,17,7.70
2018,02,14,12,18,7.70
2018,02,14,12,19,7.70
2018,02,14,12,20,7.70
2018,02,14,12,21,7.70
2018,02,14,12,22,7.70
2018,02,14,12,23,7.70
2018,02,14,12,24,7.70
2018,02,14,12,25,7.80
2018,02,14,12,26,7.80
2018,02,14,12,27,7.80
2018,02,14,12,28,7.80
2018,02,14,12,29,7.90
2018,02,14,12,30,7.90
2018,02,14,12,31,7.90
2018,02,14,12,32,7.80
2018,02,14,12,33,7.80
2018,02,14,12,34,7.80
2018,02,14,12,35,7.70
2018,02,14,12,36,7.50
2018,02,14,12,37,7.50
2018,02,14,12,38,7.40
2018,02,14,12,39,7.30
2018,02,14,12,40,7.30
2018,02,14,12,41,7.30
2018,02,14,12,42,7.40
2018,02,14,12,43,7.50
2018,02,14,12,44,7.60
2018,02,14,12,45,7.60
2018,02,14,12,46,7.60
2018,02,14,12,47,7.70
2018,02,14,12,48,7.70
2018,02,14,12,49,7.80
2018,02,14,12,50,7.80
2018,02,14,12,51,7.80
2018,02,14,12,52,7.80
2018,02,14,12,53,7.80
2018,02,14,12,54,7.80
2018,02,14,12,55,7.80
2018,02,14,12,56,7.80
2018,02,14,12,57,7.90
2018,02,14,12,58,7.90
2018,02,14,12,59,7.90
2018,02,14,13,00,7.90
2018,02,14,13,01,8.00
2018,02,14,13,02,8.10
2018,02,14,13,03,8.10
2018,02,14,13,04,8.10
2018,02,14,13,05,8.10
2018,02,14,13,06,8.10
2018,02,14,13,07,7.90
2018,02,14,13,08,7.80
2018,02,14,13,09,7.80
2018,02,14,13,10,7.70
2018,02,14,13,11,7.70
2018,02,14,13,12,7.70
2018,02,14,13,13,7.70
2018,02,14,13,14,7.70
2018,02,14,13,15,7.80
2018,02,14,13,16,7.80
2018,02,14,13,17,7.90
2018,02,14,13,18,7.90
2018,02,14,13,19,7.90
2018,02,14,13,20,8.00
2018,02,14,13,21,8.10
2018,02,14,13,22,8.00
2018,02,14,13,23,8.00
2018,02,14,13,24,8.00
2018,02,14,13,25,8.00
2018,02,14,13,26,8.00
2018,02,14,13,27,7.90
2018,02,14,13,28,7.90
2018,02,14,13,29,7.90
2018,02,14,13,30,8.00
2018,02,14,13,31,8.00
2018,02,14,13,32,7.90
2018,02,14,13,33,7.90
2018,02,14,13,34,8.00
2018,02,14,13,35,8.00
2018,02,14,13,36,8.10
2018,02,14,13,37,8.10
2018,02,14,13,38,8.10
2018,02,14,13,39,8.00
2018,02,14,13,40,8.00
2018,02,14,13,41,7.90
2018,02,14,13,42,7.90
2018,02,14,13,43,7.80
2018,02,14,13,44,7.80
2018,02,14,13,45,7.80
2018,02,14,13,46,7.80
2018,02,14,13,47,7.70
2018,02,14,13,48,7.70
2018,02,14,13,49,7.70
2018,02,14,13,50,7.70
2018,02,14,13,51,7.70
2018,02,14,13,52,7.70
2018,02,14,13,53,7.70
2018,02,14,13,54,7.80
2018,02,14,13,55,7.80
2018,02,14,13,56,7.80
2018,02,14,13,57,7.80
2018,02,14,13,58,7.80
2018,02,14,13,59,7.80
2018,02,14,14,00,7.80
2018,02,14,14,01,7.80
2018,02,14,14,02,7.90
2018,02,14,14,03,7.90
2018,02,14,14,04,7.90
2018,02,14,14,05,7.90
2018,02,14,14,06,7.90
2018,02,14,14,07,7.90
2018,02,14,14,08,7.90
2018,02,14,14,09,8.00
2018,02,14,14,10,8.10
2018,02,14,14,11,8.20
2018,02,14,14,12,8.20
2018,02,14,14,13,8.20
2018,02,14,14,14,8.20
2018,02,14,14,15,8.20
2018,02,14,14,16,8.20
2018,02,14,14,17,8.20
2018,02,14,14,18,8.20
2018,02,14,14,19,8.20
2018,02,14,14,20,8.20
2018,02,14,14,21,8.20
2018,02,14,14,22,8.20
2018,02,14,14,23,8.20
2018,02,14,14,24,8.20
2018,02,14,14,25,8.20
2018,02,14,14,26,8.20
2018,02,14,14,27,8.20
2018,02,14,14,28,8.20
2018,02,14,14,29,8.20
2018,02,14,14,30,8.20
2018,02,14,14,31,8.10
2018,02,14,14,32,8.10
2018,02,14,14,33,8.00
2018,02,14,14,34,8.00
2018,02,14,14,35,8.00
2018,02,14,14,36,8.00
2018,02,14,14,37,8.00
2018,02,14,14,38,8.10
2018,02,14,14,39,8.10
2018,02,14,14,40,8.10
2018,02,14,14,41,8.10
2018,02,14,14,42,8.10
2018,02,14,14,43,8.20
2018,02,14,14,44,8.20
2018,02,14,14,45,8.20
2018,02,14,14,46,8.20
2018,02,14,14,47,8.10
2018,02,14,14,48,8.00
2018,02,14,14,49,8.00
2018,02,14,14,50,8.00
2018,02,14,14,51,7.90
2018,02,14,14,52,7.80
2018,02,14,14,53,7.80
2018,02,14,14,54,7.80
2018,02,14,14,55,7.90
2018,02,14,14,56,7.90
2018,02,14,14,57,7.90
2018,02,14,14,58,7.80
2018,02,14,14,59,7.80
2018,02,14,15,00,7.70
2018,02,14,15,01,7.70
2018,02,14,15,02,7.60
2018,02,14,15,03,7.60
2018,02,14,15,04,7.60
2018,02,14,15,05,7.60
2018,02,14,15,06,7.50
2018,02,14,15,07,7.50
2018,02,14,15,08,7.50
2018,02,14,15,09,7.50
2018,02,14,15,10,7.60
2018,02,14,15,11,7.60
2018,02,14,15,12,7.70
2018,02,14,15,13,7.70
2018,02,14,15,14,7.70
2018,02,14,15,15,7.70
2018,02,14,15,16,7.70
2018,02,14,15,17,7.80
2018,02,14,15,18,7.80
2018,02,14,15,19,7.80
2018,02,14,15,20,7.80
2018,02,14,15,21,7.80
2018,02,14,15,22,7.90
2018,02,14,15,23,7.90
2018,02,14,15,24,7.90
2018,02,14,15,25,7.90
2018,02,14,15,26,7.90
2018,02,14,15,27,7.90
2018,02,14,15,28,7.90
2018,02,14,15,29,7.90
2018,02,14,15,30,7.80
2018,02,14,15,31,7.80
2018,02,14,15,32,7.80
2018,02,14,15,33,7.70
2018,02,14,15,34,7.70
2018,02,14,15,35,7.60
2018,02,14,15,36,7.60
2018,02,14,15,37,7.60
2018,02,14,15,38,7.60
2018,02,14,15,39,7.70
2018,02,14,15,40,7.70
2018,02,14,15,41,7.80
2018,02,14,15,42,7.80
2018,02,14,15,43,7.90
2018,02,14,15,44,8.00
2018,02,14,15,45,8.00
2018,02,14,15,46,8.10
2018,02,14,15,47,8.20
2018,02,14,15,48,8.20
2018,02,14,15,49,8.30
2018,02,14,15,50,8.40
2018,02,14,15,51,8.50
2018,02,14,15,52,8.50
2018,02,14,15,53,8.50
2018,02,14,15,54,8.50
2018,02,14,15,55,8.40
2018,02,14,15,56,8.40
2018,02,14,15,57,8.40
2018,02,14,15,58,8.50
2018,02,14,15,59,8.50
2018,02,14,16,00,8.60
2018,02,14,16,01,8.70
2018,02,14,16,02,8.70
2018,02,14,16,03,8.80
2018,02,14,16,04,8.80
2018,02,14,16,05,8.80
2018,02,14,16,06,8.90
2018,02,14,16,07,8.90
2018,02,14,16,08,8.80
2018,02,14,16,09,8.80
2018,02,14,16,10,8.80
2018,02,14,16,11,8.80
2018,02,14,16,12,8.70
2018,02,14,16,13,8.70
2018,02,14,16,14,8.70
2018,02,14,16,15,8.70
2018,02,14,16,16,8.70
2018,02,14,16,17,8.70
2018,02,14,16,18,8.70
2018,02,14,16,19,8.60
2018,02,14,16,20,8.60
2018,02,14,16,21,8.60
2018,02,14,16,22,8.60
2018,02,14,16,23,8.50
2018,02,14,16,24,8.50
2018,02,14,16,25,8.40
2018,02,14,16,26,8.30
2018,02,14,16,27,8.30
2018,02,14,16,28,8.30
2018,02,14,16,29,8.30
2018,02,14,16,30,8.30
2018,02,14,16,31,8.30
2018,02,14,16,32,8.20
2018,02,14,16,33,8.20
2018,02,14,16,34,8.20
2018,02,14,16,35,8.20
2018,02,14,16,36,8.10
2018,02,14,16,37,8.10
2018,02,14,16,38,8.10
2018,02,14,16,39,8.10
2018,02,14,16,40,8.00
2018,02,14,16,41,7.90
2018,02,14,16,42,7.80
2018,02,14,16,43,7.80
2018,02,14,16,44,7.70
2018,02,14,16,45,7.70
2018,02,14,16,46,7.70
2018,02,14,16,47,7.60
2018,02,14,16,48,7.60
2018,02,14,16,49,7.60
2018,02,14,16,50,7.60
2018,02,14,16,51,7.50
2018,02,14,16,52,7.40
2018,02,14,16,53,7.40
2018,02,14,16,54,7.30
2018,02,14,16,55,7.30
2018,02,14,16,56,7.20
2018,02,14,16,57,7.20
2018,02,14,16,58,7.20
2018,02,14,16,59,7.10
2018,02,14,17,00,7.10
2018,02,14,17,01,7.10
2018,02,14,17,02,7.10
2018,02,14,17,03,7.10
2018,02,14,17,04,7.10
2018,02,14,17,05,7.10
2018,02,14,17,06,7.00
2018,02,14,17,07,7.00
2018,02,14,17,08,6.90
2018,02,14,17,09,6.90
2018,02,14,17,10,6.90
2018,02,14,17,11,6.80
2018,02,14,17,12,6.80
2018,02,14,17,13,6.80
2018,02,14,17,14,6.80
2018,02,14,17,15,6.70
2018,02,14,17,16,6.60
2018,02,14,17,17,6.60
2018,02,14,17,18,6.60
2018,02,14,17,19,6.50
2018,02,14,17,20,6.40
2018,02,14,17,21,6.40
2018,02,14,17,22,6.40
2018,02,14,17,23,6.30
2018,02,14,17,24,6.30
2018,02,14,17,25,6.20
2018,02,14,17,26,6.10
2018,02,14,17,27,6.10
2018,02,14,17,28,6.00
2018,02,14,17,29,5.90
2018,02,14,17,30,5.80
2018,02,14,17,31,5.80
2018,02,14,17,32,5.70
2018,02,14,17,33,5.70
2018,02,14,17,34,5.60
2018,02,14,17,35,5.50
2018,02,14,17,36,5.50
2018,02,14,17,37,5.40
2018,02,14,17,38,5.30
2018,02,14,17,39,5.20
2018,02,14,17,40,5.20
2018,02,14,17,41,5.10
2018,02,14,17,42,5.10
2018,02,14,17,43,5.10
2018,02,14,17,44,5.00
2018,02,14,17,45,4.90
2018,02,14,17,46,4.90
2018,02,14,17,47,4.80
2018,02,14,17,48,4.80
2018,02,14,17,49,4.80
2018,02,14,17,50,4.70
2018,02,14,17,51,4.70
2018,02,14,17,52,4.70
2018,02,14,17,53,4.70
2018,02,14,17,54,4.60
2018,02,14,17,55,4.60
2018,02,14,17,56,4.50
2018,02,14,17,57,4.50
2018,02,14,17,58,4.40
2018,02,14,17,59,4.40
2018,02,14,18,00,4.40
2018,02,14,18,01,4.30
2018,02,14,18,02,4.20
2018,02,14,18,03,4.20
2018,02,14,18,04,4.20
2018,02,14,18,05,4.20
2018,02,14,18,06,4.10